Regional Weather Roundup
Issued by NWS Little Rock, AR

Home | Current Version | Previous Version | Graphics & Text | Print | Product List | Glossary On
Versions: 1 2 3 4 5 6 7 8 9 10 11 12 13 14 15 16 17 18 19 20 21 22 23 24 25 26 27 28 29 30 31 32 33 34 35 36 37 38 39 40 41 42 43 44 45 46 47 48 49 50
000
ASUS44 KLZK 282005
RWRLZK

WEATHER ROUNDUP FOR ARKANSAS
NATIONAL WEATHER SERVICE LITTLE ROCK AR
300 PM CDT MON JUL 28 2014

NOTE: "FAIR" INDICATES FEW OR NO CLOUDS BELOW 12,000 FEET WITH NO
SIGNIFICANT WEATHER AND/OR OBSTRUCTIONS TO VISIBILITY.

ARZ001-003-010-029-282100-
NORTHWEST ARKANSAS

CITY           SKY/WX    TMP DP  RH WIND       PRES   REMARKS
FAYETTEVILLE   SUNNY     84  59  42 N13G18    30.17F
FORT SMITH     SUNNY     89  57  33 N14       30.12F HX  88
HARRISON       SUNNY     83  57  41 N10       30.15F
BENTONVILLE    MOSUNNY   82  57  42 N8        30.19F
ROGERS         SUNNY     82  54  37 N9G18     30.19F
SILOAM SPGS    SUNNY     81  57  44 N13       30.19F
HIGHFILL       SUNNY     85  57  38 N10G17    30.18F
SPRINGDALE     MOSUNNY   84  57  39 NW10G23   30.19F
$$

ARZ004-005-016-282100-
NORTH CENTRAL ARKANSAS

CITY           SKY/WX    TMP DP  RH WIND       PRES   REMARKS
BATESVILLE     MOSUNNY   84  63  48 W8        30.08F HX  85
FLIPPIN        MOSUNNY   84  57  39 N8        30.12F
MTN HOME       MOSUNNY   83  59  44 N5        30.11F
$$

ARZ040-041-282100-
WEST CENTRAL ARKANSAS

CITY           SKY/WX    TMP DP  RH WIND       PRES   REMARKS
MENA           SUNNY     88  59  37 CALM      30.14S HX  87
MOUNT IDA      SUNNY     88  65  46 VRB7      30.09F HX  90
$$

ARZ009-017-025-026-028-282100-
NORTHEAST ARKANSAS

CITY           SKY/WX    TMP DP  RH WIND       PRES   REMARKS
JONESBORO      MOSUNNY   83  63  50 NW10G18   30.07S
NEWPORT        MOSUNNY   85  63  47 NW8       30.08F HX  86
WALNUT RIDGE   MOSUNNY   84  61  45 N12       30.07S
BLYTHEVILLE    MOSUNNY   84  66  54 NW10      30.06F HX  86
$$

ARZ022-023-033-042-044-282100-
CENTRAL ARKANSAS

CITY           SKY/WX    TMP DP  RH WIND       PRES   REMARKS
LITTLE ROCK    MOSUNNY   88  60  38 N14       30.08F HX  87
N LITTLE ROCK  MOSUNNY   84  64  51 NW9G17    30.08F HX  85
JACKSONVILLE   SUNNY     85  64  49 NW8       30.08F HX  87
SEARCY         SUNNY     84  63  49 NW8       30.08F HX  85
HOT SPRINGS    SUNNY     87  62  43 VRB7      30.10F HX  87
RUSSELLVILLE   SUNNY     87  61  41 VRB7      30.10F HX  87
CLINTON        FAIR      86  63  45 NW7       30.11F HX  87
$$

ARZ036-282100-
EAST ARKANSAS

CITY           SKY/WX    TMP DP  RH WIND       PRES   REMARKS
WEST MEMPHIS   SUNNY     84  66  54 N9        30.04F HX  86
$$

ARZ050-053-066-070-073-282100-
SOUTHWEST ARKANSAS

CITY           SKY/WX    TMP DP  RH WIND       PRES   REMARKS
ARKADELPHIA    FAIR      89  67  48 N8        30.08F HX  92
CAMDEN         SUNNY     90  64  43 N7        30.06F HX  91
TEXARKANA      MOSUNNY   90  65  43 NW6       30.09F HX  92
EL DORADO      SUNNY     90  67  46 VRB7      30.07F HX  93
DE QUEEN       PTSUNNY   89  68  49 N5        30.08F HX  93
$$

ARZ056-057-069-282100-
SOUTHEAST ARKANSAS

CITY           SKY/WX    TMP DP  RH WIND       PRES   REMARKS
PINE BLUFF     SUNNY     86  63  45 NW8       30.07F HX  87
STUTTGART      SUNNY     84  64  51 N12       30.08F HX  86
MONTICELLO     SUNNY     88  65  46 N7        30.06F HX  90

$$





USA.gov is the U.S. government's official web portal to all federal, state and local government web resources and services.